This is the latest recevied weather packets stored in our database for station/object WI5KEY. If no packets are shown the sender has not sent any weather packets the latest 10 day(s).
| Time | Temp. | Humidity | Pressure | Rain* | Wind** | Luminosity | Snow |
|---|---|---|---|---|---|---|---|
| 1777566631 | 20° C | 87% | 1012.6 hPa | 0 mm | - | - | - |
| 1777565745 | 20° C | 86% | 1012.5 hPa | 0 mm | - | - | - |
| 1777564841 | 20° C | 86% | 1012.6 hPa | 0 mm | - | - | - |
| 1777563932 | 20° C | 86% | 1012.3 hPa | 0 mm | - | - | - |
| 1777563026 | 19.44° C | 87% | 1011.9 hPa | 0 mm | - | - | - |
| 1777562125 | 19.44° C | 87% | 1012.2 hPa | 0 mm | - | - | - |
| 1777561224 | 18.89° C | 87% | 1012.4 hPa | 0 mm | - | - | - |
| 1777560323 | 18.89° C | 87% | 1012.2 hPa | 0 mm | - | - | - |
| 1777559423 | 18.89° C | 88% | 1012 hPa | 0 mm | - | - | - |
| 1777558534 | 18.33° C | 88% | 1011.9 hPa | 0 mm | - | - | - |
| 1777557621 | 18.33° C | 89% | 1011.7 hPa | 0 mm | - | - | - |
| 1777556729 | 17.78° C | 89% | 1011.9 hPa | 0 mm | - | - | - |
| 1777555819 | 17.78° C | 89% | 1012.1 hPa | 0 mm | - | - | - |
| 1777554922 | 17.78° C | 90% | 1012.1 hPa | 0 mm | - | - | - |
| 1777554077 | 17.78° C | 90% | 1012 hPa | 0 mm | - | - | - |
| 1777553117 | 17.22° C | 90% | 1011.9 hPa | 0 mm | - | - | - |
| 1777552218 | 17.22° C | 90% | 1011.5 hPa | 0 mm | - | - | - |
| 1777551332 | 17.22° C | 90% | 1011.4 hPa | 0 mm | - | - | - |
| 1777550415 | 17.22° C | 90% | 1011.2 hPa | 0 mm | - | - | - |
| 1777549517 | 17.22° C | 91% | 1011.4 hPa | 0 mm | - | - | - |
| 1777548616 | 17.22° C | 91% | 1011.3 hPa | 0 mm | - | - | - |
| 1777547712 | 17.22° C | 91% | 1010.9 hPa | 0 mm | - | - | - |
| 1777546824 | 17.22° C | 91% | 1010.7 hPa | 0 mm | - | - | - |
| 1777545910 | 17.78° C | 91% | 1010.9 hPa | 0 mm | - | - | - |
| 1777545011 | 17.78° C | 91% | 1010.6 hPa | 0 mm | - | - | - |
* Rain latest hour (hover to see other rain measurements)
** Current wind speed in m/s (hover to see current wind gust speed)